Wind_Speed
4 3 7 10 8 7 4 11 13 13 11 10 18 13 20 19 17 18 17 15 14 15 20 25 32 33 32 29 25 24 21 18 17 17 13 12 13 13 13 13 13 11 6 5
4 7 11 7 5 5 4 7 13 3 12 7 13 17 20 20 22 19 18 17 17 12 11 15 23 28 32 29 25 24 23 21 21 19 16 12 11 10 10 7 8 6 8 7
7 8 6 5 7 4 5 10 13 9 7 7 12 1 6 13 16 10 18 21 20 19 17 14 17 24 29 28 26 25 23 22 23 18 15 12 10 8 7 7 9 12 8 3
7 12 9 8 8 6 8 11 18 9 15 7 8 7 7 14 15 9 13 18 18 20 21 17 19 21 26 32 28 26 24 23 21 19 18 15 12 10 5 14 12 9 6 5
9 10 14 10 16 8 12 9 11 12 16 7 5 4 18 7 14 14 12 20 19 22 23 21 24 30 32 33 33 31 29 24 21 20 17 17 13 10 13 15 11 7 6 5
10 7 8 12 18 10 14 4 7 5 5 2 11 12 4 10 26 18 12 19 19 21 24 23 33 33 34 36 37 36 32 27 23 20 18 17 17 16 15 13 11 10 6 4
7 19 10 12 7 8 5 6 1 2 0 7 8 10 14 21 24 23 22 23 21 23 22 21 21 26 31 35 36 41 38 33 28 26 22 19 15 13 12 10 10 9 8 10
6 16 17 7 13 11 8 10 6 7 3 6 7 6 10 17 26 25 20 26 23 24 23 24 23 30 35 39 38 36 42 39 35 32 25 20 16 14 10 10 8 9 10 9
7 9 7 12 11 9 9 4 9 7 1 3 4 8 8 6 17 19 17 21 22 24 23 23 25 31 33 36 39 41 42 43 41 34 26 22 20 17 14 13 12 12 9 9
8 3 8 13 5 7 13 7 3 3 6 4 5 5 6 5 13 14 16 18 17 22 22 21 20 28 34 38 41 40 42 42 41 32 27 25 20 17 16 15 14 12 11 10
12 5 11 1 7 12 1 3 3 6 5 6 3 6 7 9 16 18 16 18 14 19 22 21 17 32 37 36 37 38 35 36 41 36 32 30 23 20 18 16 13 11 11 10
10 7 14 20 14 11 9 10 8 6 5 2 5 6 4 11 16 16 12 12 9 15 15 19 19 30 32 34 33 35 34 36 45 39 37 31 25 24 23 21 15 12 12 11
10 6 9 10 7 3 7 6 7 5 4 7 6 6 4 5 9 7 10 8 9 12 12 14 17 16 28 32 34 34 34 38 43 41 39 34 29 27 26 22 18 16 14 15
12 6 10 15 9 5 5 8 7 8 5 6 6 4 5 8 12 9 11 11 10 15 17 16 14 16 26 31 34 35 33 38 44 41 41 38 31 31 25 21 21 20 19 19
14 10 7 9 19 12 14 16 9 6 8 9 8 11 10 14 16 15 12 10 11 10 11 15 16 14 21 27 31 31 31 35 41 39 39 40 36 34 26 24 25 24 23 22
6 8 10 16 17 8 7 9 11 9 6 1 6 8 9 14 6 9 14 11 10 8 10 9 9 12 16 25 29 31 34 33 41 39 35 38 37 35 31 28 27 26 24 21
11 7 6 11 6 7 2 5 3 3 4 5 7 10 11 5 7 9 9 9 11 10 8 9 10 13 19 25 30 30 34 39 43 37 35 40 41 36 35 32 31 27 25 22
6 9 1 5 5 6 7 2 13 10 5 8 4 8 19 17 11 8 7 8 10 9 8 7 7 13 25 32 29 30 32 35 40 35 33 38 40 39 39 37 32 27 24 24
4 6 5 5 5 4 2 6 4 7 3 5 7 1 7 8 6 3 4 5 9 8 6 4 5 7 16 26 34 32 33 40 36 31 38 40 41 40 39 36 31 26 25 26
8 9 5 3 6 6 2 8 7 4 5 8 5 6 7 4 5 4 3 6 7 7 6 6 8 8 16 23 27 31 33 32 27 35 40 40 38 37 33 35 26 27 29 28
6 5 5 3 4 3 5 13 3 8 5 4 6 6 5 4 3 4 5 5 7 8 10 8 5 9 20 27 29 27 26 23 26 31 35 33 32 34 35 28 27 29 28 23
4 4 4 4 4 4 17 6 7 3 7 8 10 7 8 8 8 5 8 6 2 6 5 4 10 11 16 21 23 22 20 15 20 17 7 7 14 30 33 26 27 23 22 14
1 5 3 4 1 6 6 4 1 4 5 8 12 8 8 8 6 5 2 2 5 5 6 14 20 21 23 27 30 27 18 17 16 12 13 12 6 19 23 14 17 14 13 11
3 3 5 5 2 6 5 3 4 5 7 7 8 8 9 8 9 9 8 6 3 5 8 13 18 21 21 30 30 29 25 23 21 18 11 13 10 10 8 23 16 18 14 12
2 5 5 1 4 8 5 1 3 6 12 10 9 6 5 9 9 4 2 3 3 8 13 10 13 19 19 25 26 24 23 19 13 8 8 21 22 16 16 18 16 13 11 8
4 6 5 5 3 4 4 6 0 12 9 4 5 10 9 10 7 4 5 3 9 12 17 18 19 24 22 20 19 20 17 16 5 8 16 21 19 15 18 15 11 8 11 11
Wind_Direction
232 131 209 224 201 192 216 142 171 191 171 135 157 163 176 182 189 192 190 184 186 182 186 179 181 182 187 190 187 195 193 195 201 198 209 221 230 236 245 255 254 248 245 224
305 215 227 218 201 214 211 189 187 200 166 115 164 170 185 186 197 195 188 179 183 175 168 175 172 179 188 190 196 192 193 197 201 205 213 217 225 237 246 258 252 219 223 229
189 243 230 215 266 267 267 188 201 171 152 54 141 189 198 206 201 198 197 185 180 171 173 179 176 180 188 192 190 194 195 199 193 204 203 209 220 227 237 221 243 180 182 164
206 247 242 232 243 182 267 217 212 145 152 166 176 202 242 199 188 200 188 183 186 176 174 177 184 188 189 195 193 197 192 192 198 203 204 206 215 212 183 157 146 147 146 151
226 218 229 239 236 190 239 204 203 168 176 105 187 95 214 140 211 219 210 195 185 179 175 181 186 185 191 195 195 193 192 198 201 202 207 216 218 191 169 166 164 158 163 193
211 257 179 221 246 224 245 218 52 75 100 166 202 190 237 186 211 214 223 201 185 182 184 185 186 183 187 190 193 194 192 197 201 202 205 196 188 175 169 174 180 172 175 197
229 237 251 224 237 258 167 68 294 325 10 203 181 194 232 209 216 208 205 195 189 184 182 182 181 180 183 184 192 193 192 194 199 200 198 196 198 199 202 205 187 178 152 153
189 236 226 223 201 224 184 156 156 193 215 255 126 223 252 200 204 201 204 192 186 186 186 182 183 183 183 185 187 189 191 191 195 196 196 191 201 204 202 189 187 192 193 183
171 249 269 222 223 181 237 141 190 136 141 67 275 300 325 223 195 185 179 188 189 189 188 186 189 187 186 187 189 190 189 190 192 194 192 193 192 198 203 206 204 196 205 196
219 274 239 251 189 235 188 177 81 7 180 231 278 268 240 176 174 186 182 188 185 187 186 189 191 186 194 194 192 192 191 191 191 186 194 193 196 197 198 194 201 209 200 205
191 138 263 147 199 219 68 145 70 124 140 168 235 262 220 208 179 187 193 199 171 171 187 191 187 193 197 195 192 193 188 187 187 184 195 196 200 199 198 205 205 208 211 221
194 174 237 250 257 234 176 179 151 154 235 197 157 260 305 192 180 174 199 199 176 169 178 189 191 191 194 194 191 191 185 188 190 187 198 196 203 206 205 207 207 214 222 232
184 211 236 298 316 352 190 177 155 114 95 185 151 258 342 87 104 138 149 171 168 162 170 179 186 190 194 193 194 189 185 189 189 191 198 198 204 208 206 207 213 217 227 236
161 141 190 225 219 192 205 180 168 141 147 175 209 171 134 173 144 152 157 165 165 174 177 179 183 194 194 193 194 189 187 188 189 192 196 199 202 202 205 206 212 219 228 233
158 188 158 213 226 220 222 207 173 158 186 175 211 170 202 182 168 170 169 166 156 172 184 192 196 195 195 192 194 190 189 188 186 188 193 201 202 205 207 206 213 222 227 234
189 220 160 226 243 243 192 196 204 161 144 208 166 195 200 186 151 153 173 162 150 157 179 180 203 217 209 194 193 192 190 183 187 190 194 197 208 209 207 208 214 220 227 234
152 166 127 217 189 152 100 167 205 214 46 167 170 213 155 167 180 157 149 164 160 164 145 164 189 199 207 206 199 193 189 181 187 192 191 200 208 212 211 214 215 220 226 234
152 134 64 182 132 160 235 199 109 97 7 348 239 187 183 179 173 167 176 155 166 156 170 186 170 196 208 205 198 193 185 178 185 196 202 202 205 212 217 217 216 222 229 237
4 113 96 147 168 207 43 36 165 136 306 316 274 138 138 125 89 21 235 164 165 169 169 195 232 249 223 201 194 178 171 180 188 191 203 207 209 213 216 218 219 222 229 237
15 57 103 110 126 162 239 300 332 77 25 324 70 75 96 41 90 258 186 122 122 145 144 199 239 245 203 189 178 171 177 179 178 195 206 209 209 220 217 223 220 223 228 238
352 9 49 64 115 325 321 306 237 70 223 285 76 79 115 100 183 196 164 136 154 170 195 223 228 231 197 180 172 171 173 176 187 196 197 204 216 222 224 221 225 229 231 236
76 359 47 354 63 26 339 321 82 225 321 66 54 32 61 63 36 28 7 338 282 247 232 108 93 93 142 154 146 130 130 149 167 181 222 286 271 245 230 230 231 233 246 204
295 143 115 84 168 250 302 52 189 231 86 26 66 49 59 55 22 325 274 302 324 332 126 138 124 109 123 146 150 138 135 156 156 162 154 132 3 311 339 298 264 232 182 177
56 205 113 123 321 290 280 275 23 33 57 12 37 48 48 37 357 344 345 20 69 111 123 122 122 116 119 134 136 128 123 123 124 120 82 333 234 262 246 268 238 194 196 223
181 75 149 227 98 316 306 34 296 44 52 33 8 353 34 64 359 307 42 158 139 97 93 100 104 107 100 120 123 126 136 145 130 138 180 207 234 258 212 193 192 197 195 196
187 182 136 214 176 202 220 294 208 64 59 58 37 16 2 35 6 352 332 187 151 138 129 121 121 121 132 137 143 155 150 146 172 217 207 226 253 235 199 186 145 145 144 142
Height
730 753 766 756 753 751 757 764 772 758 754 769 775 783 779 775 778 782 781 784 787 789 790 792 795 800 804 807 811 814 817 820 822 824 826 826 827 828 829 829 830 831 832 833
746 759 736 732 738 747 755 768 766 754 748 761 778 783 772 770 770 772 775 778 781 786 790 792 795 797 801 805 808 811 814 816 818 821 822 824 825 826 826 827 828 829 830 830
752 738 721 731 740 751 753 761 758 763 754 760 774 796 786 770 766 769 768 765 770 778 785 790 793 796 799 802 805 809 811 813 815 818 820 822 823 823 824 825 824 826 827 829
742 720 728 735 743 743 772 740 732 750 762 798 767 817 794 774 774 770 767 766 768 770 774 781 788 792 795 797 801 806 810 812 814 816 818 818 819 820 821 823 825 825 826 827
737 728 731 741 732 729 747 728 735 739 757 775 778 807 774 782 782 771 764 758 759 761 764 772 778 783 788 793 797 800 805 809 811 813 815 817 818 818 819 821 822 823 824 824
725 705 716 721 712 718 712 725 742 759 779 810 777 783 798 785 762 758 758 752 753 757 759 763 769 776 781 787 793 797 800 804 807 810 812 814 817 817 818 819 821 822 822 822
726 720 708 704 726 715 720 756 795 795 807 811 780 784 763 750 738 739 742 742 743 748 754 759 766 772 777 781 786 788 792 797 803 806 808 811 814 816 816 817 819 820 820 821
757 754 715 702 717 730 737 750 796 806 808 790 764 779 750 720 711 720 723 727 734 742 745 750 756 761 764 769 776 782 783 788 795 800 802 806 810 813 815 816 818 820 821 822
758 747 702 697 696 708 726 752 733 769 770 789 773 748 721 707 715 718 725 727 732 735 740 746 749 752 760 765 768 771 776 780 785 793 800 802 805 809 812 814 816 818 819 820
723 749 707 694 693 696 706 710 756 774 792 794 783 766 764 730 725 720 723 724 727 728 734 739 744 750 753 757 760 765 771 775 781 789 798 801 804 806 808 811 813 814 817 818
706 728 718 699 711 716 717 727 735 746 771 792 801 779 724 723 712 717 715 712 722 726 727 731 738 742 744 751 756 759 768 773 777 781 792 793 800 804 805 808 810 812 814 816
694 722 730 715 692 681 694 713 727 762 766 769 776 769 701 700 698 701 711 710 714 718 721 724 729 735 740 745 751 756 763 769 771 776 787 789 796 800 801 804 806 808 810 813
680 720 734 730 708 688 696 699 711 730 746 763 775 764 706 703 703 703 707 709 712 716 722 722 727 731 734 738 744 749 756 761 768 773 780 785 791 793 795 798 801 804 806 808
661 705 713 726 721 699 702 695 700 717 754 756 752 733 718 715 711 710 708 708 709 709 711 716 720 724 727 732 737 743 750 755 761 768 774 782 787 788 791 794 797 798 800 803
660 703 700 696 680 684 684 683 697 711 716 729 726 726 720 710 703 698 696 698 705 710 712 712 716 720 723 728 733 739 747 752 756 762 768 776 780 783 787 789 791 794 795 797
662 689 687 691 676 681 681 674 677 688 699 701 709 716 697 689 692 698 693 697 700 704 706 710 712 716 718 719 726 733 737 744 751 757 763 772 776 780 781 783 785 788 790 793
665 678 698 703 682 685 699 680 676 674 682 688 721 697 693 697 695 697 697 698 697 698 700 706 707 708 712 717 720 727 732 736 743 750 753 763 768 771 776 777 778 781 785 789
668 675 692 700 692 723 686 654 661 688 690 690 685 682 679 678 682 687 687 691 693 692 695 697 701 705 706 708 715 723 728 734 742 750 757 758 761 763 768 771 772 776 780 783
658 671 707 713 707 693 675 684 682 685 704 686 690 675 676 679 684 690 686 682 684 687 691 693 695 699 700 703 706 715 723 729 735 744 748 753 755 757 762 765 768 773 777 779
661 668 681 710 707 716 701 683 671 669 723 684 685 684 683 681 715 708 684 682 685 688 688 691 694 697 699 702 707 712 717 723 731 738 742 747 749 752 757 762 766 769 771 772
701 700 707 718 721 714 696 685 665 721 731 689 681 685 687 696 697 690 686 685 683 685 687 691 694 695 697 699 704 709 717 724 731 738 742 748 750 752 756 759 761 763 765 768
717 718 727 724 719 731 695 685 707 712 699 690 688 691 694 693 693 694 692 691 689 689 689 690 697 699 701 704 710 716 724 729 733 737 745 751 757 757 752 753 756 758 762 764
718 716 726 740 743 724 713 711 706 707 701 704 696 697 696 699 701 701 699 702 696 691 695 693 695 698 701 704 709 718 726 729 734 739 741 741 752 761 751 751 753 758 759 760
711 717 721 726 729 725 714 708 702 702 702 705 703 705 702 702 701 697 693 695 698 699 699 699 699 700 704 708 715 720 726 733 737 741 742 750 751 750 744 748 753 751 753 756
707 706 726 729 715 724 714 703 707 701 695 703 710 712 707 702 706 705 705 707 705 700 702 705 704 705 710 717 721 724 730 733 735 739 740 740 749 750 748 750 751 749 750 752
712 715 720 729 715 725 719 713 704 700 703 709 713 710 712 703 706 700 701 704 701 702 704 706 711 711 714 719 722 726 728 731 733 734 731 734 741 745 748 747 747 750 751 751